Total_Precipitation_Accumulation
0.14 0.18 0.22 0.17 0.14 0.18 0.26 0.34 0.43 0.35 0.17 0.05 0.02 0.01 0.02 0.02 0.02 0.01 0.01 0.01 0.01 0.04 0.05 0.04 0.04 0.04 0.05 0.07 0.10 0.13 0.14 0.12 0.12 0.12 0.10 0.09 0.14 0.15
0.13 0.16 0.19 0.15 0.14 0.16 0.19 0.25 0.33 0.36 0.31 0.14 0.07 0.03 0.01 0.01 0.02 0.03 0.01 0.03 0.05 0.06 0.06 0.07 0.09 0.11 0.14 0.17 0.20 0.21 0.20 0.19 0.15 0.16 0.19 0.20 0.19 0.16
0.07 0.11 0.12 0.14 0.18 0.17 0.20 0.31 0.38 0.38 0.43 0.27 0.18 0.13 0.07 0.04 0.03 0.04 0.04 0.05 0.04 0.05 0.07 0.11 0.15 0.20 0.23 0.24 0.25 0.27 0.31 0.36 0.33 0.27 0.27 0.21 0.15 0.12
0.05 0.09 0.13 0.16 0.19 0.18 0.17 0.22 0.31 0.33 0.42 0.40 0.25 0.19 0.12 0.06 0.04 0.03 0.05 0.10 0.15 0.21 0.24 0.22 0.23 0.31 0.37 0.38 0.36 0.37 0.42 0.50 0.54 0.54 0.56 0.54 0.37 0.17
0.23 0.26 0.29 0.31 0.33 0.31 0.35 0.37 0.41 0.43 0.45 0.53 0.52 0.40 0.32 0.27 0.16 0.11 0.11 0.14 0.19 0.25 0.31 0.35 0.38 0.43 0.49 0.55 0.60 0.63 0.62 0.60 0.66 0.75 0.65 0.72 0.66 0.41
0.48 0.51 0.50 0.51 0.55 0.62 0.67 0.70 0.72 0.77 0.80 0.89 0.88 0.70 0.62 0.46 0.33 0.32 0.33 0.30 0.32 0.31 0.41 0.50 0.54 0.57 0.56 0.57 0.61 0.62 0.54 0.47 0.48 0.63 0.70 0.54 0.40 0.34
0.64 0.65 0.66 0.71 0.76 0.75 0.75 0.79 0.80 0.83 0.91 1.09 1.26 1.24 1.07 0.87 0.64 0.53 0.50 0.60 0.65 0.56 0.53 0.54 0.51 0.51 0.62 0.65 0.68 0.61 0.55 0.55 0.49 0.49 0.50 0.40 0.24 0.29
0.63 0.67 0.70 0.73 0.73 0.78 0.80 0.80 0.75 0.75 0.78 0.81 0.84 0.90 0.88 0.76 0.76 0.70 0.70 0.72 0.82 0.87 0.64 0.76 0.63 0.62 0.59 0.50 0.56 0.53 0.56 0.50 0.48 0.42 0.39 0.37 0.28 0.21
0.54 0.61 0.63 0.66 0.67 0.63 0.62 0.61 0.61 0.66 0.69 0.67 0.69 0.75 0.77 0.70 0.62 0.68 0.67 0.68 0.73 0.87 0.78 1.05 1.04 1.01 1.01 0.98 0.88 0.73 0.59 0.51 0.41 0.39 0.35 0.30 0.22 0.17
0.42 0.42 0.40 0.40 0.40 0.38 0.37 0.36 0.37 0.41 0.45 0.47 0.49 0.56 0.60 0.68 0.71 0.74 0.81 0.86 0.92 1.01 0.82 0.95 1.03 1.05 1.00 1.01 1.00 0.83 0.62 0.45 0.34 0.32 0.30 0.21 0.13 0.10
0.23 0.25 0.25 0.27 0.28 0.25 0.23 0.24 0.26 0.31 0.33 0.36 0.42 0.52 0.59 0.65 0.61 0.62 0.74 0.62 0.75 0.79 0.68 0.62 0.76 0.70 0.71 0.74 0.71 0.54 0.40 0.31 0.25 0.24 0.22 0.16 0.08 0.06
0.06 0.08 0.11 0.11 0.12 0.13 0.13 0.15 0.14 0.19 0.18 0.19 0.22 0.29 0.37 0.46 0.47 0.37 0.32 0.33 0.34 0.40 0.41 0.39 0.51 0.37 0.37 0.43 0.35 0.25 0.20 0.19 0.19 0.21 0.17 0.08 0.05 0.06
0.01 0.02 0.02 0.01 0.02 0.03 0.03 0.05 0.07 0.08 0.08 0.08 0.11 0.16 0.19 0.22 0.30 0.35 0.37 0.33 0.28 0.24 0.31 0.23 0.30 0.24 0.16 0.22 0.25 0.22 0.17 0.18 0.16 0.15 0.15 0.05 0.03 0.02
0.00 0.00 0.00 0.00 0.00 0.00 0.00 0.00 0.02 0.03 0.03 0.03 0.05 0.11 0.13 0.16 0.21 0.23 0.24 0.21 0.18 0.19 0.23 0.13 0.16 0.14 0.10 0.14 0.16 0.17 0.12 0.11 0.10 0.13 0.18 0.13 0.08 0.03
0.00 0.00 0.00 0.00 0.00 0.00 0.00 0.00 0.00 0.00 0.01 0.01 0.02 0.05 0.08 0.11 0.13 0.11 0.08 0.06 0.06 0.09 0.13 0.13 0.08 0.09 0.08 0.08 0.14 0.15 0.12 0.11 0.10 0.10 0.08 0.05 0.03 0.02
0.00 0.00 0.00 0.00 0.00 0.00 0.00 0.00 0.00 0.00 0.00 0.00 0.00 0.00 0.01 0.02 0.02 0.02 0.01 0.01 0.01 0.03 0.04 0.05 0.03 0.02 0.03 0.06 0.05 0.07 0.05 0.05 0.04 0.03 0.02 0.01 0.00 0.00
0.00 0.00 0.00 0.00 0.00 0.00 0.00 0.00 0.00 0.00 0.00 0.00 0.00 0.00 0.00 0.00 0.00 0.00 0.00 0.00 0.00 0.00 0.00 0.00 0.00 0.00 0.00 0.01 0.02 0.02 0.02 0.02 0.01 0.00 0.00 0.00 0.00 0.00
0.01 0.01 0.00 0.00 0.00 0.00 0.00 0.00 0.00 0.00 0.00 0.00 0.00 0.00 0.00 0.00 0.00 0.00 0.00 0.00 0.00 0.00 0.00 0.00 0.00 0.00 0.00 0.00 0.00 0.00 0.00 0.00 0.00 0.00 0.00 0.00 0.00 0.00
0.02 0.02 0.01 0.00 0.00 0.00 0.00 0.00 0.00 0.01 0.00 0.00 0.00 0.00 0.00 0.00 0.00 0.00 0.00 0.00 0.00 0.00 0.00 0.00 0.00 0.00 0.00 0.00 0.00 0.00 0.00 0.00 0.00 0.00 0.00 0.00 0.00 0.00
0.03 0.01 0.00 0.01 0.00 0.00 0.00 0.00 0.01 0.01 0.01 0.01 0.01 0.01 0.01 0.01 0.00 0.00 0.00 0.01 0.00 0.00 0.00 0.00 0.00 0.00 0.00 0.00 0.00 0.00 0.00 0.00 0.00 0.00 0.00 0.00 0.00 0.00
0.04 0.01 0.00 0.00 0.00 0.00 0.00 0.00 0.01 0.01 0.01 0.01 0.01 0.01 0.01 0.01 0.01 0.01 0.01 0.00 0.00 0.00 0.00 0.00 0.01 0.00 0.00 0.00 0.00 0.00 0.00 0.00 0.00 0.01 0.00 0.01 0.01 0.00
0.02 0.02 0.00 0.00 0.00 0.00 0.00 0.01 0.01 0.01 0.01 0.01 0.02 0.01 0.01 0.01 0.01 0.01 0.00 0.01 0.01 0.01 0.00 0.00 0.00 0.00 0.00 0.00 0.00 0.00 0.00 0.00 0.00 0.00 0.00 0.00 0.01 0.02
0.01 0.02 0.00 0.00 0.00 0.00 0.00 0.01 0.01 0.01 0.01 0.01 0.02 0.01 0.02 0.01 0.01 0.01 0.01 0.01 0.01 0.00 0.00 0.00 0.00 0.00 0.00 0.00 0.00 0.00 0.00 0.00 0.00 0.00 0.00 0.00 0.00 0.00